Location: Bakov nad Jizerou
(50.4784°N, 14.9394°E)
Time: 15:31:44
(UTC+00:00)

SAR-Lupe-2 - Pass Details

Date: 16 June 2021
Orbit: 482 x 484 km, 98.1° (Epoch: 20 July)

Event Time Altitude Azimuth Distance (km) Brightness Sun altitude
Rises 23:07:35 0° 11° (N) 2,564 9.0 -16.1°
Reaches altitude 10° 23:09:41 10° 7° (N) 1,678 7.6 -16.1°
Maximum altitude 23:13:13 58° 289° (WNW) 571 3.9 -16.1°
Enters shadow 23:14:50 29° 220° (SW) 915 4.5 -16.1°
